Time,B instrument,Bx,By,Bz,sigma B,Ion instrument,Status,Tp_par,Tp_perp,carrot,r_sun,clat,clong,earth_he_angle,n_p,vp_x,vp_y,vp_z,vth_p_par,vth_p_perp
1980-08-09 00:00:06,1,-1.175,4.525,5.85,0.443001,1,1,260563.0,219597.0,1697,0.94239581,1.8008089,11.792694,104.84737,8.44228,432.159,-24.2118,50.489,65.5864,60.2103
1980-08-09 00:02:48,1,-1.175,4.575,7.025,0.275,1,1,231825.0,197547.0,1697,0.94240093,1.8006792,11.768982,104.84709,8.61057,435.33,-28.0421,50.6606,61.864,57.1076
1980-08-09 00:05:30,1,-1.425,4.175,7.0,0.136931,1,1,204179.0,190144.0,1697,0.94240868,1.8004866,11.745117,104.84668,8.73444,431.995,-28.259,55.9662,58.0582,56.0272
1980-08-09 00:08:12,1,-2.0,3.9,7.9,0.441588,1,1,167340.0,178361.0,1697,0.94241643,1.800293,11.717377,104.84627,8.38173,430.221,-26.3414,53.1398,52.5603,54.2635
1980-08-09 00:10:54,1,-5.63333,3.13333,1.33333,0.282843,1,1,146179.0,220855.0,1697,0.94242156,1.8001642,11.693665,104.84599,7.36792,406.543,-20.1402,33.647,49.1248,60.3825
1980-08-09 00:13:36,1,-3.4,2.825,-1.475,0.808548,1,1,239134.0,240992.0,1697,0.9424293,1.7999706,11.6698,104.84558,8.83198,411.823,-24.9792,7.67314,62.8317,63.0752
1980-08-09 00:16:18,1,-5.93333,2.46667,-1.06667,0.503322,1,1,105892.0,164103.0,1697,0.94243705,1.799777,11.642059,104.84517,6.38045,398.919,-28.2533,11.7962,41.811,52.0495
1980-08-09 00:19:00,1,-6.725,0.85,0.9,0.272718,1,1,184615.0,226562.0,1697,0.9424448,1.7995844,11.618195,104.84476,8.09876,402.133,-38.1262,27.9405,55.2067,61.1578
1980-08-09 00:21:42,1,-6.95,1.1,1.4,0.342783,1,1,242093.0,221166.0,1697,0.94244993,1.7994556,11.594482,104.84448,8.08893,398.165,-44.9962,33.073,63.2192,60.4251
1980-08-09 00:24:24,1,-6.85,1.15,1.1,0.273861,1,1,192932.0,206056.0,1697,0.94245768,1.799262,11.566742,104.84407,7.93681,400.307,-39.0606,32.8061,56.4365,58.3244
1980-08-09 00:27:06,1,-6.775,0.6,0.1,0.311247,1,1,174307.0,210046.0,1697,0.94246542,1.7990685,11.542877,104.84366,7.78382,397.043,-45.8878,26.1712,53.6433,58.8864
1980-08-09 00:29:48,1,-6.65,0.45,-0.7,0.441588,1,1,138169.0,199215.0,1697,0.94247055,1.7989397,11.519165,104.84338,6.95725,399.843,-43.4135,13.6874,47.7599,57.3482
1980-08-09 00:32:30,1,-7.5,-0.1,0.566667,0.410961,1,1,205299.0,194979.0,1697,0.9424783,1.7987461,11.491425,104.84297,7.55253,399.562,-50.814,23.0648,58.2172,56.7351
1980-08-09 00:35:12,1,-5.03333,1.76667,-2.8,0.210819,1,1,337793.0,198066.0,1697,0.94248605,1.7985535,11.46756,104.84256,9.10936,408.187,-32.0986,4.73789,74.6763,57.1824
1980-08-09 00:37:54,1,-4.05,2.2,-2.825,1.17659,1,1,212176.0,185342.0,1697,0.94249117,1.7984247,11.443848,104.84229,7.07387,417.713,-25.8498,6.92752,59.1842,55.3152
1980-08-09 00:40:36,1,-3.825,3.9,-2.85,0.882822,1,1,91857.8,183321.0,1697,0.94249892,1.7982311,11.416107,104.84187,6.50716,415.014,-14.6551,-1.14914,38.9418,55.0129
1980-08-09 00:43:18,1,0.075,6.225,-2.425,1.03953,1,1,182126.0,197434.0,1697,0.94250667,1.7980375,11.392242,104.84146,8.53197,446.801,-23.5542,-5.25155,54.8332,57.0912
1980-08-09 00:46:00,1,1.875,2.275,-4.925,0.534439,1,1,128139.0,186181.0,1697,0.94251442,1.7978439,11.364502,104.84105,7.55823,467.863,-45.4992,-22.3437,45.9938,55.4403
1980-08-09 00:48:42,1,0.275,1.75,-5.125,0.443001,1,1,180126.0,247641.0,1697,0.94251955,1.7977152,11.34079,104.84077,8.58455,461.805,-37.9035,-20.3858,54.5313,63.9395
1980-08-09 00:51:24,-1,nan,nan,nan,nan,1,4,nan,nan,1697,0.94252729,1.7975225,11.316925,104.84036,nan,nan,nan,nan,nan,nan
1980-08-09 00:54:06,1,-4.875,6.85,-0.25,0.816624,1,1,131319.0,274955.0,1697,0.94253504,1.7973289,11.289185,104.83995,8.78953,430.237,1.1323,21.9664,46.5609,67.3734
1980-08-09 00:56:48,1,-4.35,3.425,8.275,0.97532,1,1,290321.0,250877.0,1697,0.94254017,1.7972002,11.265472,104.83968,10.0546,442.018,-25.8399,77.0264,69.2305,64.3559
1980-08-09 01:10:51,-1,nan,nan,nan,nan,1,3,nan,nan,1697,0.94257623,1.796298,11.134613,104.83774,nan,439.209,-17.5808,79.1356,nan,nan
1980-08-09 01:21:39,1,-6.0,5.7,-2.1,0.223607,1,1,654003.0,340793.0,1697,0.94260454,1.7955885,11.035461,104.83623,14.4948,428.381,-10.9371,52.8032,103.908,75.0072
1980-08-09 01:32:27,1,-4.0,5.0,-5.46667,0.549747,1,1,121680.0,232456.0,1697,0.94263285,1.7948799,10.932373,104.83472,7.51644,440.379,-2.19465,-8.60278,44.8196,61.9481
1980-08-09 01:37:18,1,-3.4,4.3,-5.7,0.2,1,1,115132.0,236032.0,1697,0.94264573,1.7945576,10.888733,104.83403,7.84887,433.364,-14.9267,-13.6085,43.597,62.4228
1980-08-09 01:48:06,1,-4.0,3.6,-5.5,0.0,1,1,124351.0,227773.0,1697,0.94267404,1.793849,10.785645,104.83252,7.60591,422.256,-14.1954,-8.05019,45.3088,61.3209
1980-08-09 01:58:54,1,-0.55,3.05,-6.9,0.158114,1,1,73595.8,193856.0,1697,0.94269979,1.7932043,10.686615,104.83115,6.72384,449.678,-16.2588,-23.7594,34.8566,56.5715
1980-08-09 02:09:42,1,-0.25,1.4,-7.3,0.206155,1,1,78433.7,207954.0,1697,0.94272804,1.7924957,10.587433,104.82962,6.62223,454.126,-24.3174,-24.1536,35.984,58.5925
1980-08-09 02:20:30,1,-2.85,3.6,-6.05,0.484768,1,1,87491.9,209646.0,1697,0.94275635,1.7917871,10.484375,104.82811,7.76554,421.237,2.34222,-7.8713,38.0051,58.8304
1980-08-09 02:31:18,1,-5.6,4.9,0.75,1.31244,1,1,209925.0,213265.0,1697,0.94278461,1.7910776,10.385193,104.8266,9.33434,433.724,-10.2128,-7.69455,58.8695,59.3359
1980-08-09 02:42:06,1,-6.8,3.55,2.7,0.890225,1,1,233292.0,221201.0,1697,0.94281286,1.790369,10.282135,104.82509,11.7905,414.071,-5.08054,59.0153,62.0595,60.4298
1980-08-09 03:17:09,-1,nan,nan,nan,nan,1,3,nan,nan,1697,0.94290268,1.7881145,9.9570007,104.82027,nan,411.127,-7.1525,44.0085,nan,nan
1980-08-09 03:22:33,-1,nan,nan,nan,nan,1,4,nan,nan,1697,0.9429155,1.7877922,9.9055176,104.81958,nan,nan,nan,nan,nan,nan
1980-08-09 03:27:57,1,-6.325,4.725,1.4,0.799218,1,1,221222.0,224228.0,1697,0.94292831,1.7874708,9.8579712,104.81889,10.2638,419.725,1.41709,59.6322,60.4326,60.8419
1980-08-09 03:30:42,-1,nan,nan,nan,nan,1,4,nan,nan,1697,0.94293606,1.7872772,9.8302002,104.81848,nan,nan,nan,nan,nan,nan
1980-08-09 03:36:06,1,-6.35,4.2,0.8,0.259808,1,1,420028.0,204812.0,1697,0.94295144,1.786891,9.778595,104.81764,12.3479,413.544,-1.28206,39.8496,83.2716,58.1481
1980-08-09 03:41:30,-1,nan,nan,nan,nan,1,4,nan,nan,1697,0.94296426,1.7865686,9.7310181,104.81696,nan,nan,nan,nan,nan,nan
1980-08-09 03:46:54,1,-7.65,3.25,2.2,0.3937,1,1,707191.0,186443.0,1697,0.94297707,1.7862463,9.6795654,104.81627,15.0919,391.484,0.54929,50.8628,108.05,55.4793
1980-08-09 03:52:18,-1,nan,nan,nan,nan,1,4,nan,nan,1697,0.94299245,1.7858601,9.6279602,104.81544,nan,nan,nan,nan,nan,nan
1980-08-09 03:57:42,1,-5.225,5.425,1.725,0.23585,1,1,334763.0,218659.0,1697,0.94300526,1.7855377,9.5803833,104.81476,10.9887,425.815,5.09445,42.2201,74.3406,60.0816
1980-08-09 04:03:06,-1,nan,nan,nan,nan,1,4,nan,nan,1697,0.94302064,1.7851515,9.5287781,104.81392,nan,nan,nan,nan,nan,nan
1980-08-09 04:08:30,-1,nan,nan,nan,nan,1,4,nan,nan,1697,0.94303346,1.7848291,9.4772949,104.81323,nan,nan,nan,nan,nan,nan
1980-08-09 04:13:54,-1,nan,nan,nan,nan,1,4,nan,nan,1697,0.94304627,1.7845078,9.4297485,104.81255,nan,nan,nan,nan,nan,nan
1980-08-09 04:19:18,-1,nan,nan,nan,nan,1,4,nan,nan,1697,0.94306159,1.7841206,9.3781433,104.81172,nan,nan,nan,nan,nan,nan
1980-08-09 04:24:42,-1,nan,nan,nan,nan,1,4,nan,nan,1697,0.94307441,1.7837992,9.3266602,104.81102,nan,nan,nan,nan,nan,nan
1980-08-09 04:30:06,1,-6.5,4.16667,0.166667,0.893184,1,1,193997.0,165867.0,1697,0.94308978,1.7834129,9.2750549,104.8102,8.25176,410.469,12.4019,19.402,56.5921,52.3285
1980-08-09 04:35:30,1,-2.2,2.6,-5.3,0.360555,1,1,102803.0,133545.0,1697,0.94310254,1.7830906,9.227478,104.80951,7.36534,413.11,8.53595,-7.77768,41.1966,46.954
1980-08-09 04:46:18,1,-3.225,4.35,-3.6,0.298957,1,1,126663.0,167774.0,1697,0.94313067,1.782382,9.1243896,104.80798,8.5738,404.129,20.4105,-4.88335,45.728,52.6284
1980-08-09 04:51:42,1,-6.15,4.65,-1.0,0.587367,1,1,67130.6,164401.0,1697,0.94314349,1.7820597,9.0768433,104.8073,6.53173,394.727,20.7701,23.238,33.2903,52.0967
1980-08-09 04:57:06,1,-5.03333,4.86667,-1.73333,0.46188,1,1,130830.0,175622.0,1697,0.94315886,1.7816734,9.025238,104.80647,7.89863,397.65,19.2618,6.54118,46.4741,53.8453
1980-08-09 05:02:30,1,-6.775,3.3,-0.1,0.349106,1,1,112289.0,148416.0,1697,0.94317162,1.781352,8.9737549,104.80577,7.08073,396.995,1.41246,6.80746,43.0552,49.4991
1980-08-09 05:07:54,1,-4.43333,4.33333,-3.06667,0.2,1,1,103923.0,128707.0,1697,0.94318444,1.7810297,8.926178,104.80508,7.19182,388.261,16.3395,20.1816,41.4204,46.0955
1980-08-09 05:13:18,1,-5.1,5.5,-0.8,0.4,1,1,83991.2,139193.0,1697,0.94319975,1.7806435,8.8745728,104.80426,6.89449,391.962,25.7473,21.5747,37.237,47.9364
1980-08-09 05:18:42,1,-4.9,5.0,-0.8,0.452769,1,1,149609.0,141397.0,1697,0.94321251,1.7803221,8.8231201,104.80357,7.6931,398.432,20.113,20.8706,49.6977,48.3145
1980-08-09 05:24:06,1,-5.275,5.325,-0.225,0.505594,1,1,141466.0,174698.0,1697,0.94322783,1.7799358,8.7714844,104.80273,8.03992,396.611,17.0942,17.7314,48.3263,53.7034
1980-08-09 05:29:30,1,-5.625,5.225,-1.075,0.480234,1,1,77788.0,170175.0,1697,0.94324064,1.7796135,8.723938,104.80205,7.10764,391.131,26.9667,14.3074,35.8356,53.0036
1980-08-09 05:34:54,1,-4.96667,5.36667,-1.6,0.194365,1,1,90071.4,164704.0,1697,0.9432534,1.7792921,8.6724548,104.80136,7.46284,391.505,25.4501,8.04924,38.5613,52.1447
1980-08-09 05:40:18,1,-5.46667,6.03333,0.966667,0.282843,1,1,112905.0,126825.0,1697,0.94326872,1.7789059,8.6208496,104.80054,7.49792,396.046,20.4433,14.8053,43.1732,45.7572
1980-08-09 05:45:42,1,-5.475,6.2,0.3,0.491808,1,1,91041.9,142457.0,1697,0.94328153,1.7785835,8.5732727,104.79984,7.37717,389.735,25.8384,11.4241,38.7685,48.4953
1980-08-09 05:51:06,1,-5.675,6.125,0.3,0.329773,1,1,108960.0,169869.0,1697,0.94329685,1.7781973,8.5216675,104.79901,7.15256,391.192,23.8631,12.912,42.4122,52.956
1980-08-09 05:56:30,1,-5.95,5.725,0.7,0.582559,1,1,84862.2,175667.0,1697,0.94330961,1.7778759,8.4702148,104.79832,6.74117,391.219,26.083,29.443,37.4296,53.8521
1980-08-09 06:01:54,1,-4.7,6.13333,0.0,0.169967,1,1,79969.3,129889.0,1697,0.94332236,1.7775536,8.4226379,104.79762,7.41352,382.295,33.8055,10.5163,36.3345,46.3067
1980-08-09 06:07:18,1,-5.53333,5.76667,-0.366667,0.424264,1,1,97323.8,182157.0,1697,0.94333768,1.7771673,8.3710327,104.7968,6.93459,389.59,22.1996,12.6334,40.0837,54.838
1980-08-09 06:12:42,1,-5.75,5.275,0.625,0.465027,1,1,88407.9,131890.0,1697,0.94335043,1.776845,8.3195496,104.79611,7.16496,374.508,30.7293,15.2451,38.2035,46.662
1980-08-09 06:18:06,1,-5.2,5.63333,0.1,0.298142,1,1,44015.4,102959.0,1697,0.94336575,1.7764587,8.2679443,104.79527,5.62006,375.584,38.0406,9.7049,26.9563,41.2279
1980-08-09 06:23:30,1,-4.73333,4.53333,0.0,0.194365,1,1,94580.3,121953.0,1697,0.94337851,1.7761374,8.2203674,104.79459,7.84797,376.117,31.0257,11.5637,39.5146,44.8698
1980-08-09 06:28:54,1,-5.7,4.5,-0.366667,0.329983,1,1,85353.9,135006.0,1697,0.9433912,1.775815,8.1689148,104.7939,7.75773,376.319,28.8422,2.56651,37.5379,47.2101
1980-08-09 06:34:18,1,-4.5,5.1,-0.4,0.223607,1,1,96178.2,95272.3,1697,0.94340652,1.7754288,8.1172791,104.79306,7.34307,377.888,30.4275,10.3317,39.847,39.6589
1980-08-09 06:39:42,1,-4.73333,4.53333,0.266667,0.270801,1,1,82892.4,110682.0,1697,0.94341928,1.7751064,8.0697327,104.79237,7.88231,369.805,28.0024,18.4955,36.9926,42.7461
1980-08-09 06:45:06,1,-5.2,4.33333,0.4,0.434613,1,1,107270.0,118822.0,1697,0.9434346,1.7747202,8.0181274,104.79155,7.79635,372.619,32.2728,9.78358,42.0821,44.2901
1980-08-09 06:50:30,1,-6.23333,3.06667,-0.1,0.210819,1,1,112556.0,116089.0,1697,0.94344735,1.7743988,7.9666443,104.79085,8.66001,368.003,25.7333,9.37115,43.1064,43.7778
1980-08-09 06:55:54,1,-5.93333,3.26667,0.2,0.253859,1,1,137608.0,142053.0,1697,0.94346011,1.7740765,7.9190674,104.79016,9.48991,363.925,26.3202,12.3434,47.6628,48.4264
1980-08-09 07:01:18,1,-6.0,2.8,0.233333,0.319722,1,1,106195.0,114856.0,1697,0.94347537,1.7736902,7.8674622,104.78932,8.23367,364.844,25.299,14.7407,41.8707,43.5446
1980-08-09 07:09:03,-1,nan,nan,nan,nan,1,4,nan,nan,1697,0.94349575,1.7731752,7.796051,104.78822,nan,nan,nan,nan,nan,nan
1980-08-09 07:14:27,1,-6.0,4.0,0.966667,0.329983,1,1,93688.9,113123.0,1697,0.94350845,1.7728539,7.7445679,104.78752,7.51895,365.697,25.4062,15.0575,39.328,43.2149
1980-08-09 07:19:51,-1,nan,nan,nan,nan,1,4,nan,nan,1697,0.9435212,1.7725315,7.6930847,104.78683,nan,nan,nan,nan,nan,nan
1980-08-09 07:25:15,1,-5.8,3.9,0.7,1.11022e-16,1,1,78294.2,99567.4,1697,0.94353646,1.7721453,7.6414795,104.786,6.92902,364.398,30.2797,13.0528,35.952,40.5431
1980-08-09 07:28:18,1,-5.8,3.9,0.566667,0.188562,1,1,75591.2,88029.6,1697,0.94354409,1.7719526,7.6137085,104.78558,7.01769,362.195,24.8886,12.9384,35.3259,38.1217
1980-08-09 07:33:42,-1,nan,nan,nan,nan,1,3,nan,nan,1697,0.94355685,1.7716312,7.5661621,104.7849,nan,362.366,23.4248,12.8496,nan,nan
1980-08-09 07:39:06,-1,nan,nan,nan,nan,1,3,nan,nan,1697,0.9435721,1.771245,7.5145264,104.78406,nan,359.879,18.6109,11.4672,nan,nan
1980-08-09 07:55:18,1,-6.7,3.0,-0.1,1.38778e-17,1,1,47618.1,83145.2,1697,0.94361281,1.770215,7.3638916,104.78185,9.55697,362.525,45.7944,4.06257,28.0378,37.049
1980-08-09 08:00:42,1,-7.33333,2.56667,-0.366667,0.282843,1,1,33933.6,71676.6,1697,0.94362557,1.7698936,7.3124084,104.78116,9.81012,356.861,45.2595,3.26947,23.6686,34.3991
1980-08-09 08:06:06,1,-7.725,5.325,2.5,0.220794,1,1,157754.0,129330.0,1697,0.94364077,1.7695074,7.2608032,104.78032,10.7838,375.733,40.7684,11.3099,51.0327,46.2069
1980-08-09 08:11:30,1,-7.13333,5.43333,2.33333,0.565685,1,1,73995.6,112062.0,1697,0.94365346,1.7691851,7.2132263,104.77962,10.6072,368.04,52.4943,10.8123,34.9511,43.0118
1980-08-09 08:16:54,1,-6.9,4.83333,2.4,0.274874,1,1,108502.0,105812.0,1697,0.94366616,1.7688637,7.1617432,104.77893,11.9003,369.407,45.9705,7.41928,42.3231,41.795
1980-08-09 08:22:18,1,-6.8,5.125,1.225,0.27157,1,1,172943.0,114880.0,1697,0.94368142,1.7684774,7.1101379,104.77809,12.4834,372.07,47.1589,13.9534,53.433,43.5492
1980-08-09 08:27:42,1,-7.4,3.93333,1.0,0.298142,1,1,76271.7,111138.0,1697,0.94369411,1.7681551,7.062561,104.7774,10.1563,366.397,48.1114,14.3709,35.4846,42.834
1980-08-09 08:33:06,1,-7.63333,3.93333,-0.6,0.210819,1,1,102147.0,114993.0,1697,0.94370937,1.7677698,7.0109558,104.77657,11.4056,367.487,46.01,3.99058,41.065,43.5706
1980-08-09 08:38:30,1,-6.63333,5.06667,1.63333,0.316228,1,1,63216.8,82139.8,1697,0.94372207,1.7674475,6.9594727,104.77588,10.7265,367.756,52.4809,5.70633,32.3053,36.8243
1980-08-09 08:43:54,1,-6.5,5.3,2.56667,0.771722,1,1,80459.4,93558.1,1697,0.94373477,1.7671261,6.9079895,104.77518,11.4835,366.957,52.3996,5.55643,36.4457,39.3006
1980-08-09 08:49:18,1,-6.56667,5.53333,1.46667,0.216025,1,1,59226.5,93147.8,1697,0.94375002,1.7667398,6.8602905,104.77435,11.2381,365.546,55.3458,1.62763,31.2691,39.2143
1980-08-09 08:54:42,1,-7.3,3.6,-1.4,2.22045e-16,1,1,94321.6,114307.0,1697,0.94376272,1.7664175,6.8088074,104.77365,11.6174,370.871,45.8357,-2.94206,39.4606,43.4404
1980-08-09 09:00:06,1,-7.43333,3.2,-1.66667,0.352767,1,1,62330.2,99198.9,1697,0.94377798,1.7660322,6.7572021,104.77283,11.2535,367.13,47.2679,-7.59479,32.078,40.468
1980-08-09 09:05:30,1,-7.025,4.625,-0.675,0.60879,1,1,72022.6,98248.5,1697,0.94379061,1.7657099,6.7096252,104.77213,12.327,368.814,51.4206,-4.2053,34.482,40.2736
1980-08-09 09:10:54,1,-7.86667,4.46667,4.86667,0.282843,1,1,47296.9,95621.5,1697,0.94380331,1.7653885,6.6581726,104.77144,9.52867,363.944,48.951,11.8389,27.9431,39.7316
1980-08-09 09:16:18,1,-8.3,2.7,-0.2,4.44956e-16,1,1,48961.8,95491.7,1697,0.94381851,1.7650023,6.6065369,104.7706,10.4532,356.52,51.5059,6.4215,28.4306,39.7046
1980-08-09 09:21:42,1,-9.06667,2.53333,0.166667,0.216025,1,1,61611.6,94075.0,1697,0.94383121,1.7646809,6.55896,104.7699,9.60971,351.136,52.8079,4.39632,31.8925,39.409
1980-08-09 09:27:06,1,-8.95,2.75,-0.225,0.268095,1,1,43854.0,90085.9,1697,0.9438464,1.7642946,6.5073547,104.76907,9.40677,355.645,54.9745,9.1632,26.9068,38.5644
1980-08-09 09:32:30,1,-8.6,2.66667,0.866667,0.253859,1,1,62612.6,78336.0,1697,0.9438591,1.7639732,6.4558716,104.76837,9.87898,355.241,54.3771,12.1569,32.1506,35.9616
1980-08-09 09:37:54,1,-7.96667,2.73333,-0.466667,0.316228,1,1,48748.3,60753.2,1697,0.9438718,1.7636509,6.4044189,104.76768,10.0944,352.077,49.4856,0.732978,28.3686,31.6696
1980-08-09 09:43:18,1,-8.63333,2.46667,0.0666667,0.282843,1,1,53549.5,68771.7,1697,0.943887,1.7632647,6.3566895,104.76685,10.2533,349.483,47.9718,4.73468,29.7328,33.6948
1980-08-09 09:48:42,1,-8.8,2.9,-0.466667,0.188562,1,1,43647.9,77931.5,1697,0.94389969,1.7629433,6.3052368,104.76616,9.3746,348.39,52.85,5.66331,26.8435,35.8686
1980-08-09 09:54:06,1,-9.43333,2.03333,2.23333,0.270801,1,1,50519.5,71682.3,1697,0.94391489,1.762557,6.2536011,104.76532,11.0951,350.09,46.8334,9.09537,28.8794,34.4004
1980-08-09 09:59:30,1,-8.6,3.63333,3.13333,0.253859,1,1,48280.6,58173.6,1697,0.94392759,1.7622356,6.2060547,104.76463,9.84836,354.137,56.2034,16.2973,28.2322,30.9899
1980-08-09 10:04:54,1,-9.23333,2.96667,4.5,0.194365,1,1,50424.8,63922.8,1697,0.94394022,1.7619143,6.1545715,104.76393,11.1558,355.935,50.9836,19.3898,28.8523,32.4852
1980-08-09 10:10:18,1,-8.2,5.1,2.6,0.0,1,1,56910.8,66566.4,1697,0.94395542,1.761528,6.1029358,104.76309,11.8392,358.611,61.5568,15.7894,30.6518,33.1502
1980-08-09 10:15:42,1,-9.225,3.15,3.05,0.349106,1,1,37677.3,61861.1,1697,0.94396806,1.7612066,6.0553894,104.76241,10.504,349.037,52.6105,16.6233,24.9401,31.9571
1980-08-09 10:21:06,1,-9.16667,4.03333,1.43333,0.316228,1,1,31538.0,58039.2,1697,0.94398326,1.7608204,6.0037537,104.76157,9.5135,345.454,54.9733,15.5763,22.8179,30.9541
1980-08-09 10:26:30,1,-9.0,1.96667,2.86667,0.278887,1,1,38243.8,64674.6,1697,0.94399589,1.760498,5.952301,104.76088,10.496,350.516,52.1225,15.2169,25.1269,32.6757
1980-08-09 10:31:54,1,-9.1,2.63333,2.26667,0.301846,1,1,28083.8,58714.8,1697,0.94400853,1.7601767,5.9008179,104.76018,8.99225,346.212,52.645,14.9336,21.5321,31.1338
1980-08-09 10:37:18,1,-8.5,2.2,0.466667,0.188562,1,1,49670.1,64142.6,1697,0.94402373,1.7597904,5.8530884,104.75934,10.843,348.69,44.6123,10.3085,28.6355,32.541
1980-08-09 10:42:42,1,-8.06667,2.13333,0.6,0.38873,1,1,25249.7,45928.4,1697,0.94403636,1.759469,5.8016357,104.75865,9.9774,338.617,49.1391,8.66711,20.4167,27.5358
1980-08-09 10:48:06,1,-7.83333,2.66667,2.76667,0.258199,1,1,38411.1,49576.0,1697,0.94405156,1.7590828,5.75,104.75781,10.023,341.283,48.4509,14.3211,25.1818,28.6084
1980-08-09 10:53:30,1,-7.63333,3.1,3.7,0.329983,1,1,45098.5,45345.1,1697,0.9440642,1.7587614,5.7024231,104.75711,10.0772,346.778,51.6199,18.4721,27.2859,27.3604
1980-08-09 10:58:54,1,-7.76667,1.0,4.16667,0.194365,1,1,33861.0,43721.3,1697,0.9440769,1.7584391,5.6509705,104.75642,10.3682,344.052,43.6712,16.2643,23.6433,26.8661
1980-08-09 11:04:18,1,-8.0,1.13333,2.23333,0.301846,1,1,34829.2,42452.1,1697,0.94409204,1.7580538,5.5993347,104.75558,11.3973,346.382,45.0435,14.9727,23.9789,26.4733
1980-08-09 11:09:42,1,-8.1,1.63333,1.93333,0.413656,1,1,32757.9,46421.9,1697,0.94410467,1.7577324,5.5517578,104.75488,10.4011,344.327,45.5809,18.6381,23.255,27.6834
1980-08-09 11:15:06,1,-7.2,0.133333,-1.3,0.169967,1,1,40461.7,51833.2,1697,0.94411981,1.7573462,5.5001526,104.75406,10.5816,345.272,43.4527,7.24992,25.8452,29.2524
1980-08-09 11:20:30,1,-6.26667,0.866667,-0.566667,2.459,1,1,46552.3,54013.4,1697,0.94413245,1.7570248,5.4486694,104.75336,10.089,342.676,39.289,-1.7393,27.7222,29.8613
1980-08-09 11:25:54,1,-7.2,2.9,2.43333,0.498888,1,1,32713.1,47529.4,1697,0.94414508,1.7567034,5.3971863,104.75266,10.0672,340.631,55.1882,21.8413,23.2391,28.0117
1980-08-09 11:31:18,1,-7.86667,1.73333,-0.133333,0.216025,1,1,24123.6,47081.8,1697,0.94416022,1.7563171,5.3494873,104.75182,8.89882,337.84,52.247,4.51903,19.9562,27.8795
1980-08-09 11:36:42,1,-8.53333,1.63333,0.333333,0.316228,1,1,24099.7,47012.4,1697,0.94417286,1.7559958,5.2980042,104.75113,8.37156,334.541,45.6435,10.7712,19.9464,27.8589
1980-08-09 11:42:06,1,-8.13333,1.23333,1.0,0.194365,1,1,24187.1,44088.5,1697,0.94418806,1.7556095,5.2463989,104.75029,8.33559,334.04,46.7276,11.3925,19.9825,26.9787
1980-08-09 11:47:30,1,-7.9,1.7,1.13333,0.188562,1,1,22368.7,38669.2,1697,0.94420069,1.7552881,5.198822,104.74959,8.04764,329.741,46.46,16.3127,19.2167,25.2662
1980-08-09 11:52:54,1,-7.7,1.73333,0.7,0.149071,1,1,29888.4,52519.7,1697,0.94421327,1.7549667,5.1473389,104.7489,8.76373,333.262,45.0537,9.57471,22.2131,29.4455
1980-08-09 11:58:18,1,-7.5,1.8,1.1,0.0,1,1,28114.7,52154.5,1697,0.94422847,1.7545805,5.0957336,104.74806,7.93167,331.899,43.1066,8.28078,21.5439,29.343
1980-08-09 12:03:42,1,-7.33333,1.93333,1.63333,0.282843,1,1,31187.4,46956.9,1697,0.94424105,1.7542591,5.0481567,104.74736,8.94604,333.563,45.7618,13.2395,22.6907,27.8424
1980-08-09 12:19:15,1,-5.63333,2.26667,-1.2,0.253859,1,1,30642.7,47578.3,1697,0.9442814,1.7532301,4.9013977,104.74513,8.73388,336.578,50.6852,-4.10788,22.4917,28.0261
1980-08-09 12:24:39,1,-5.6,2.6,-0.133333,0.188562,1,1,33781.3,44105.5,1697,0.94429404,1.7529087,4.8499146,104.74443,8.73249,329.978,46.8301,0.490381,23.6155,26.9839
1980-08-09 12:30:03,1,-5.86667,1.63333,-0.4,0.194365,1,1,38016.1,44557.6,1697,0.94430918,1.7525234,4.8022156,104.74361,8.97845,333.988,49.7129,2.40827,25.052,27.1218
1980-08-09 12:30:42,1,-5.43333,1.96667,-0.4,0.278887,1,1,31415.5,46969.0,1697,0.94430918,1.7525234,4.7944031,104.74361,8.78714,330.478,40.2747,3.67359,22.7735,27.846
1980-08-09 12:36:06,1,-6.33333,1.3,0.333333,0.176383,1,1,37096.4,38994.1,1697,0.94432425,1.7521372,4.7427673,104.74277,9.14856,323.873,39.33,6.16884,24.7471,25.3722
1980-08-09 12:41:30,1,-4.53333,1.56667,-2.03333,0.282843,1,1,29872.5,42741.3,1697,0.94433689,1.7518158,4.6951904,104.74207,8.88056,329.647,38.2287,-6.628,22.2072,26.5633
1980-08-09 12:51:04,-1,nan,nan,nan,nan,1,4,nan,nan,1697,0.9443621,1.7511721,4.6039734,104.74068,nan,nan,nan,nan,nan,nan
1980-08-09 13:01:52,-1,nan,nan,nan,nan,1,3,nan,nan,1697,0.94438732,1.7505293,4.5049133,104.73927,nan,320.181,33.3642,12.5611,nan,nan
1980-08-09 13:12:40,1,-6.2,-0.2,2.0,0.0,1,1,39285.3,38032.3,1697,0.94441497,1.7498226,4.401825,104.73775,8.48861,317.771,21.0751,28.4506,25.4667,25.0573
1980-08-09 13:23:28,1,-6.4,1.25,1.55,0.187083,1,1,29387.6,38881.7,1697,0.94444269,1.749115,4.3026123,104.73621,7.85966,317.576,32.3733,11.4441,22.0262,25.3356
1980-08-09 13:30:06,1,-5.5,2.9,3.2,0.0,1,1,36918.5,41165.1,1697,0.94446027,1.7486649,4.2391357,104.73523,8.84087,325.919,45.054,30.0937,24.6877,26.0689
1980-08-09 13:40:54,1,-3.2,2.1,1.7,0.0,1,1,101298.0,88817.8,1697,0.94448543,1.7480221,4.1401062,104.73384,10.5155,341.616,26.7841,15.7177,40.894,38.292
1980-08-09 13:51:42,1,-3.85,2.45,1.9,0.254951,1,1,93610.9,96650.1,1697,0.94451314,1.7473145,4.0408936,104.7323,8.634,344.789,17.1646,23.5439,39.3116,39.9447
1980-08-09 14:02:30,1,4.05,0.1,1.5,0.180278,1,1,261623.0,166284.0,1697,0.9445408,1.7466078,3.9378052,104.73076,6.53216,365.341,23.4847,15.7042,65.7198,52.3942
1980-08-09 14:13:16,1,3.4,2.0,1.0,0.0,1,1,152389.0,167703.0,1697,0.9445684,1.7459002,3.8385925,104.72922,5.58765,364.993,18.9494,8.58681,50.1573,52.6172
1980-08-09 14:33:17,-1,nan,nan,nan,nan,1,4,nan,nan,1697,0.94461864,1.7446146,3.6522217,104.72643,nan,nan,nan,nan,nan,nan
1980-08-09 14:38:03,-1,nan,nan,nan,nan,1,4,nan,nan,1698,0.94465095,1.5576226,3.5354004,104.65259,nan,nan,nan,nan,nan,nan
1980-08-09 15:16:29,-1,nan,nan,nan,nan,1,3,nan,nan,1697,0.94472653,1.7418499,3.2477722,104.72041,nan,342.272,8.73926,23.7681,nan,nan
1980-08-09 15:27:17,-1,nan,nan,nan,nan,1,3,nan,nan,1697,0.94475412,1.7411432,3.1485596,104.71887,nan,342.345,14.4026,18.3591,nan,nan
1980-08-09 15:38:05,-1,nan,nan,nan,nan,1,3,nan,nan,1697,0.94478166,1.7404366,3.0454712,104.71733,nan,336.389,13.2916,20.7593,nan,nan
1980-08-09 15:48:53,-1,nan,nan,nan,nan,1,3,nan,nan,1697,0.94480675,1.7397938,2.9464111,104.71594,nan,336.633,0.854731,24.3099,nan,nan
1980-08-09 15:59:41,-1,nan,nan,nan,nan,1,3,nan,nan,1697,0.94483429,1.7390871,2.847229,104.7144,nan,333.662,0.652204,26.6365,nan,nan
1980-08-09 16:10:29,-1,nan,nan,nan,nan,1,3,nan,nan,1697,0.94486183,1.7383804,2.7441101,104.71286,nan,330.764,12.2917,25.8646,nan,nan